Regional Weather Roundup
Issued by NWS

Home | Current Version | Previous Version | Graphics & Text | Print | Product List | Glossary On
Versions: 1 2 3 4 5 6 7 8 9 10 11 12 13 14 15 16 17 18 19 20 21 22 23 24 25 26 27 28 29 30 31 32 33 34 35 36 37 38 39 40 41 42 43 44 45 46 47 48 49 50
000
ASUS43 KMPX 272210
RWRMN
WEATHER ROUNDUP FOR MINNESOTA
NATIONAL WEATHER SERVICE TWIN CITIES/CHANHASSEN MN
400 PM CST FRI FEB 27 2015


NOTE: "FAIR" INDICATES FEW OR NO CLOUDS BELOW 12,000 FEET WITH NO
SIGNIFICANT WEATHER AND/OR OBSTRUCTIONS TO VISIBILITY. N/A MEANS
CURRENT SKY AND/OR WEATHER CONDITIONS ARE NOT AVAILABLE.

MNZ060>063-068>070-272300-
   Twin Cities Metro

CITY           SKY/WX    TMP DP  RH WIND       PRES   REMARKS
TWIN CITIES    SUNNY     14  -1  51 SW8       30.51S WCI   3
ST PAUL        SUNNY     16  -1  47 SW10      30.53S WCI   4
CRYSTAL        SUNNY     16   0  49 S10       30.49F WCI   4
BLAINE         SUNNY     18   1  49 SW7       30.48F WCI   8
LAKEVILLE      SUNNY     10  -2  56 SW7       30.51F WCI   0
EDEN PRAIRIE   SUNNY     14  -1  51 SW9       30.50F WCI   2
SOUTH ST PAUL  SUNNY     17   0  48 W5        30.51F WCI  10
LAKE ELMO      FAIR      18   3  53 SW8       30.51S WCI   7
$$
MNZ001>005-007-008-013>017-022>024-027-028-272300-
   Northwest Minnesota

CITY           SKY/WX    TMP DP  RH WIND       PRES   REMARKS
BEMIDJI        SUNNY     15  -6  38 W12       30.36S WCI   2
HALLOCK        SUNNY     18   3  53 SW12      30.35S WCI   5
ROSEAU         SUNNY     14   1  57 SW13      30.33S WCI   0
WARROAD        SUNNY     16  -2  45 SW10      30.32F WCI   3
THIEF RVR FALL SUNNY     14   1  57 SW13      30.36F WCI   0
CROOKSTON      SUNNY     16   7  67 SW14      30.40F WCI   1
FOSSTON        SUNNY     16   3  57 SW10      30.38S WCI   3
DETROIT LAKES  SUNNY     18   1  49 SW7       30.40S WCI   8
MOORHEAD       SUNNY     19  -2  38 SW9       30.42F WCI   9
PARK RAPIDS    SUNNY     17  -4  39 VRB7      30.36S WCI   8
MAHNOMEN       FAIR      16   2  53 W10       30.38F WCI   3
$$
MNZ006-009>011-018-025>026-272300-
   North Central Minnesota

CITY           SKY/WX    TMP DP  RH WIND       PRES   REMARKS
BAUDETTE       SUNNY     17  -4  39 SW12      30.30S WCI   4
FLAG ISLAND    SUNNY     12   1  62 S15       30.27S WCI  -4
INTL FALLS     SUNNY     17  -7  34 W9        30.31S WCI   6
WASKISH        SUNNY     16  -2  45 SW10      30.35S WCI   3
BIG FORK       SUNNY     21  -9  25 W9        30.33S WCI  11
LONGVILLE      SUNNY     19  -9  27 SW8       30.37S WCI   9
GRAND RAPIDS   SUNNY     19  -6  32 W6        30.34S WCI  11
CRANE LAKE     SUNNY     19 -13  23 W5        30.33S WCI  13
ORR            SUNNY     21 -15  19 SW7       30.29S WCI  13
COOK           SUNNY     19  -9  27 W13       30.32S WCI   7
WALKER         FAIR      19  -7  31 SW7       30.35S WCI   9
$$
MNZ012-019>021-037-272300-
   Northeast Minnesota

CITY           SKY/WX    TMP DP  RH WIND       PRES   REMARKS
DULUTH         SUNNY     18  -6  34 W10       30.35S WCI   6
ELY            SUNNY     19 -11  25 W7        30.30S WCI  10
HIBBING        SUNNY     20 -10  26 VRB6      30.34S WCI  12
EVELETH        SUNNY     19  -8  30 W9        30.34S WCI   9
DULUTH HARBOR  SUNNY     21  -6  30 SW14      30.42F WCI   8
TWO HARBORS    SUNNY     23   0  36 W10       30.34F WCI  12
SILVER BAY     SUNNY     23  -9  23 SW6       30.33S WCI  16
GRAND MARAIS     N/A     20  10  65 SW24      30.35F WCI   3
G MARAIS ARPRT SUNNY     18 -15  23 W6G16     30.26S WCI   9
$$
MNZ029>031-032-039>041-046>048-054>057-064-272300-
   West Central Minnesota

CITY           SKY/WX    TMP DP  RH WIND       PRES   REMARKS
FERGUS FALLS   SUNNY     16  -2  45 SW8       30.46S WCI   5
WHEATON        SUNNY     14   0  52 S6        30.46F WCI   5
MORRIS         SUNNY     16   0  48 SW3       30.44S
ALEXANDRIA     SUNNY     12  -3  51 SW9       30.42S WCI   0
ELBOW LAKE     FAIR      13   1  59 SW6       30.43F WCI   4
WADENA         SUNNY     12   0  57 SW8       30.40S WCI   1
APPLETON       SUNNY     18  -2  41 SW5       30.46F WCI  11
BENSON         SUNNY     16   0  48 W6        30.46S WCI   7
ORTONVILLE     SUNNY     16   0  48 SW6       30.44F WCI   7
MADISON        SUNNY     18   1  49 S7        30.46F WCI   8
WILLMAR        FAIR      14   0  52 W5        30.48S WCI   6
$$
MNZ033>034-036-042>043-049>051-058-059-272300-
   Central Minnesota

CITY           SKY/WX    TMP DP  RH WIND       PRES   REMARKS
ST CLOUD       SUNNY     17  -3  41 W8        30.46S WCI   7
SAUK CENTRE    FAIR      15  -4  42 SW7       30.44S WCI   5
PAYNESVILLE    SUNNY     13  -6  43 SW8       30.46S WCI   1
AITKIN         SUNNY     21  -9  25 SW8       30.38S WCI  12
PINE RIVER     SUNNY     18  -2  41 SW7       30.40F WCI   8
BRAINERD       SUNNY     17  -4  39 SW9       30.40F WCI   6
STAPLES        SUNNY     16  -8  35 W8        30.40S WCI   5
LONG PRAIRIE   FAIR      16  -4  41 S7        30.42F WCI   6
LITTLE FALLS   SUNNY     18  -4  38 SW7       30.44S WCI   8
LITCHFIELD     SUNNY     12   0  57 SW5       30.48S WCI   4
BUFFALO        SUNNY     14   0  52 S7        30.50S WCI   4
MAPLE LAKE     SUNNY     17  -1  45 SW6       30.49S WCI   8
$$
MNZ037-044-045-052-053-272300-
   East Central Minnesota

CITY           SKY/WX    TMP DP  RH WIND       PRES   REMARKS
PRINCETON      SUNNY     18   0  45 S7        30.46S WCI   8
MORA           SUNNY     18  -2  41 SW10      30.46F WCI   6
CAMBRIDGE      SUNNY     18   1  49 SW6       30.45F WCI   9
RUSH CITY      SUNNY     17  -3  41 SW6       30.47F WCI   9
MOOSE LAKE     SUNNY     19  -4  35 CALM      30.39F
HINCKLEY       FAIR      18   0  45 SW9       30.45S WCI   6
CLOQUET        SUNNY     18  -9  29 SW12      30.37S WCI   5
MCGREGOR       SUNNY     19  -4  35 SW9       30.39F WCI   9
$$
MNZ071>073-080-081-089-090-097-098-272300-
   Southwest Minnesota

CITY           SKY/WX    TMP DP  RH WIND       PRES   REMARKS
MONTEVIDEO     SUNNY     19   3  49 SW5       30.48S WCI  13
GRANITE FALLS  SUNNY     15   2  56 SW5       30.50S WCI   8
CANBY          SUNNY     16   1  52 W6        30.46S WCI   7
MARSHALL       SUNNY     14   1  57 W7        30.47F WCI   4
REDWOOD FALLS  SUNNY     14   3  61 SW6       30.49S WCI   5
OLIVIA         SUNNY     14   3  62 CALM      30.48S
PIPESTONE      SUNNY     12   1  62 SW6       30.42S WCI   3
WINDOM         SUNNY     12   3  67 SW7       30.47S WCI   2
WORTHINGTON    SUNNY     25  -4  28 SW9       30.47F WCI  15
JACKSON        SUNNY     12   3  67 SW7       30.47F WCI   2
TRACY          SUNNY     16   2  55 SW5       30.46F WCI   9
SLAYTON        SUNNY     13   0  55 CALM      30.45S
$$
MNZ065>067-074>077-082>085-091>093-272300-
   South Central Minnesota

CITY           SKY/WX    TMP DP  RH WIND       PRES   REMARKS
MANKATO        SUNNY     12  -4  48 SW7       30.51F WCI   2
NEW ULM        SUNNY     12   0  57 W3        30.50F
ST JAMES       SUNNY     14   1  57 SW5       30.52S WCI   6
FAIRMONT       SUNNY     12   0  57 SW8       30.50S WCI   1
GLENCOE        SUNNY     14   4  64 S6        30.49F WCI   5
FARIBAULT      SUNNY     10   0  61 S6        30.51F WCI   1
OWATONNA       SUNNY      9  -2  61 SW6       30.51F WCI  -1
WASECA         SUNNY     12   1  62 SW7       30.53S WCI   2
ALBERT LEA     SUNNY     10   0  61 SW7       30.51F WCI   0
$$
MNZ078>079-086>088-094>096-272300-
   Southeast Minnesota

CITY           SKY/WX    TMP DP  RH WIND       PRES   REMARKS
ROCHESTER      SUNNY      6  -2  69 SW9       30.50F WCI  -8
RED WING       SUNNY     16  -2  45 W5        30.53S WCI   9
STANTON        SUNNY     13  -1  52 SW7       30.51F WCI   3
DODGE CENTER   SUNNY      7   0  72 SW7       30.50S WCI  -5
WINONA         SUNNY     14   0  52 SW5       30.57S WCI   6
AUSTIN         SUNNY      9  -2  61 SW7       30.52S WCI  -3
PRESTON        SUNNY      6  -4  63 W8        30.52F WCI  -7
$$
ABBREVIATIONS USED IN REMARKS
   TC - TEMPERATURES IN CELSIUS
  WCI - WIND CHILL INDEX
   HX - HEAT INDEX
  VSB - VISIBILITY
$$


USA.gov is the U.S. government's official web portal to all federal, state and local government web resources and services.